{"data":{"norad_id":57415,"epoch":"2026-09-20T05:36:52.817760Z","epoch_age_seconds":150561,"freshness":"FRESH","line1":"1 57415U 23102M   26263.23394465 -.00000101  00000+0  58403-5 0  9992","line2":"2 57415  43.0021 229.8473 0000862 317.5593  42.5192 15.27578729175940","mean_motion":15.27578729,"eccentricity":8.62e-5,"inclination_deg":43.0021,"raan_deg":229.8473,"arg_perigee_deg":317.5593,"mean_anomaly_deg":42.5192,"bstar":5.8403e-6,"rev_number":17594,"period_min":94.26682714695,"perigee_km":482.46146730399,"apogee_km":483.64433644307,"semimajor_km":6861.1899018735,"source":"CELESTRAK","updated_at":"2026-09-21T09:00:33.624921Z"}}